FLOCK 3P-79 (41984 NORAD) Tracking and Keplerian Element Data

This shows tracking and keplerian element data for the satellite.

Feedback or suggestion? Click here.




ElementValue
Catalog41984
NameFLOCK 3P-79
Epoch Orbit20165
Epoch Day275.8219338
Epoch Year2020
RAAN342.3737
Inclination97.3587
Eccentricity0.0005821
Argument of Perigee287.5942
Mean Anonmoly72.4661
Mean Motion15.26673872
Decay Rate3.557E-05
L11 41984U 17008AN 20275.82193380 .00003557 00000-0 13831-3 0 9991
L22 41984 97.3587 342.3737 0005821 287.5942 72.4661 15.26673872201656



Live tracking and technical data element details for FLOCK 3P-79 (NORAD 41984). FLOCK 3P-79 can be tracked NOW for your location showing map with azimuth and elevation plus other details from your city location.







IsCatalogInMostPopularTable: catalog: 41984, numindb: 533
Update: records affected: 1



GetName: 41984 FLOCK 3P-79

Hit Count: updated at: Thu, 15 May 2025 19:08:17 GMT